TGW883 WSSS-RPVM

Flight info

Callsign TGW883
Flight time N/A
Altitude 37000
Route TOMAN5B TOMAN M646 BRU W461 VSN A341 ZAM G578 ALDIN ALDIN3P
Aircraft E190/M-SDE3GILORVW/S

Departure

Time 2026-05-05 08:04
Airport Singapore Changi Airport (WSSS)

Arrival

Time N/A
Airport Mactan Cebu International Airport (RPVM)
Time Latitude Longitude Altitude Speed Heading
2026-05-05 08:03 1.18166 104.17355 13477 ft 209 kts 84°
2026-05-05 08:04 1.18375 104.18827 13883 ft 218 kts 83°
2026-05-05 08:04 1.18575 104.20377 14338 ft 227 kts 84°
2026-05-05 08:04 1.18764 104.21938 14852 ft 232 kts 84°
2026-05-05 08:04 1.18955 104.23565 15436 ft 234 kts 84°
2026-05-05 08:05 1.19140 104.25180 16022 ft 236 kts 84°
2026-05-05 08:05 1.19323 104.26794 16586 ft 238 kts 84°
2026-05-05 08:05 1.19509 104.28446 17140 ft 240 kts 84°
2026-05-05 08:05 1.19696 104.30114 17685 ft 242 kts 84°
2026-05-05 08:06 1.19884 104.31785 18225 ft 244 kts 84°
2026-05-05 08:06 1.20073 104.33477 18751 ft 246 kts 84°
2026-05-05 08:06 1.20265 104.35188 19268 ft 249 kts 84°
2026-05-05 08:06 1.20459 104.36917 19784 ft 251 kts 84°
2026-05-05 08:07 1.20652 104.38639 20284 ft 253 kts 84°
2026-05-05 08:07 1.20850 104.40407 20783 ft 255 kts 84°
2026-05-05 08:07 1.21047 104.42171 21269 ft 257 kts 84°
2026-05-05 08:07 1.21248 104.43967 21748 ft 260 kts 83°
2026-05-05 08:08 1.21448 104.45752 22212 ft 262 kts 83°
2026-05-05 08:08 1.21652 104.47570 22675 ft 264 kts 83°
2026-05-05 08:08 1.21855 104.49389 23123 ft 266 kts 83°
2026-05-05 08:08 1.22062 104.51240 23559 ft 268 kts 83°
2026-05-05 08:09 1.22269 104.53084 23989 ft 270 kts 83°
2026-05-05 08:09 1.22479 104.54961 24431 ft 272 kts 83°
2026-05-05 08:09 1.22689 104.56838 24861 ft 273 kts 83°
2026-05-05 08:09 1.22902 104.58740 25274 ft 275 kts 83°
2026-05-05 08:10 1.23115 104.60648 25672 ft 277 kts 83°
2026-05-05 08:10 1.23328 104.62554 26063 ft 279 kts 83°
2026-05-05 08:10 1.23546 104.64499 26450 ft 281 kts 83°
2026-05-05 08:10 1.23766 104.66463 26833 ft 283 kts 83°
2026-05-05 08:11 1.23984 104.68413 27203 ft 285 kts 83°
2026-05-05 08:11 1.24203 104.70373 27563 ft 287 kts 83°
2026-05-05 08:11 1.24427 104.72372 27920 ft 289 kts 83°
2026-05-05 08:11 1.24650 104.74367 28270 ft 291 kts 83°
2026-05-05 08:12 1.24874 104.76369 28614 ft 292 kts 83°
2026-05-05 08:12 1.25103 104.78416 28956 ft 294 kts 83°
2026-05-05 08:12 1.25327 104.80424 29284 ft 296 kts 83°
2026-05-05 08:12 1.25556 104.82471 29610 ft 297 kts 83°
2026-05-05 08:13 1.25787 104.84540 29931 ft 299 kts 83°
2026-05-05 08:13 1.26018 104.86601 30244 ft 301 kts 83°
2026-05-05 08:13 1.26248 104.88664 30551 ft 302 kts 83°
2026-05-05 08:13 1.26484 104.90773 30858 ft 304 kts 83°
2026-05-05 08:14 1.26716 104.92852 31154 ft 305 kts 83°
2026-05-05 08:14 1.26953 104.94966 31451 ft 307 kts 83°
2026-05-05 08:14 1.27188 104.97073 31741 ft 308 kts 83°
2026-05-05 08:14 1.27427 104.99216 32026 ft 309 kts 83°
2026-05-05 08:15 1.27665 105.01343 32299 ft 311 kts 83°
2026-05-05 08:15 1.27904 105.03486 32566 ft 312 kts 83°
2026-05-05 08:15 1.28148 105.05664 32829 ft 314 kts 83°
2026-05-05 08:15 1.28388 105.07812 33083 ft 315 kts 83°
2026-05-05 08:16 1.28632 105.09995 33334 ft 316 kts 83°
2026-05-05 08:16 1.28875 105.12172 33579 ft 318 kts 83°
2026-05-05 08:16 1.29122 105.14387 33733 ft 323 kts 83°
2026-05-05 08:16 1.29375 105.16650 33746 ft 332 kts 83°
2026-05-05 08:17 1.29902 105.21371 33851 ft 350 kts 83°
2026-05-05 08:17 1.30172 105.23787 34029 ft 354 kts 83°
2026-05-05 08:17 1.30442 105.26211 34303 ft 356 kts 83°
2026-05-05 08:18 1.30717 105.28677 34611 ft 356 kts 83°
2026-05-05 08:18 1.30990 105.31120 34905 ft 356 kts 83°
2026-05-05 08:18 1.31266 105.33588 35175 ft 358 kts 83°
2026-05-05 08:18 1.31545 105.36092 35427 ft 359 kts 83°
2026-05-05 08:19 1.31820 105.38560 35663 ft 361 kts 83°
2026-05-05 08:19 1.32100 105.41069 35899 ft 363 kts 83°
2026-05-05 08:19 1.32378 105.43559 36136 ft 364 kts 83°
2026-05-05 08:19 1.32661 105.46096 36360 ft 366 kts 83°
2026-05-05 08:20 1.32943 105.48625 36572 ft 367 kts 83°
2026-05-05 08:20 1.33224 105.51144 36777 ft 369 kts 83°
2026-05-05 08:20 1.33510 105.53706 36979 ft 371 kts 83°
2026-05-05 08:20 1.33796 105.56276 37166 ft 372 kts 83°
2026-05-05 08:21 1.34371 105.61434 37199 ft 374 kts 83°
2026-05-05 08:21 1.34941 105.66548 37199 ft 373 kts 83°
2026-05-05 08:22 1.35511 105.71658 37173 ft 366 kts 83°
2026-05-05 08:22 1.35790 105.74164 36973 ft 356 kts 83°
2026-05-05 08:22 1.36060 105.76588 37009 ft 355 kts 83°
2026-05-05 08:23 1.37321 105.81436 37033 ft 366 kts 68°
2026-05-05 08:23 1.39186 105.86208 37004 ft 372 kts 68°
2026-05-05 08:24 1.41088 105.91101 37015 ft 384 kts 68°
2026-05-05 08:24 1.43051 105.96156 37016 ft 399 kts 68°
2026-05-05 08:25 1.45087 106.01398 37016 ft 414 kts 68°
2026-05-05 08:25 1.47210 106.06866 37014 ft 429 kts 68°
2026-05-05 08:26 1.49382 106.12461 37003 ft 436 kts 68°
2026-05-05 08:26 1.51579 106.18120 37000 ft 434 kts 68°
2026-05-05 08:27 1.53757 106.23729 37001 ft 434 kts 68°
2026-05-05 08:27 1.55933 106.29338 37001 ft 434 kts 68°
2026-05-05 08:28 1.58117 106.34968 37001 ft 434 kts 68°
2026-05-05 08:28 1.60295 106.40584 37001 ft 434 kts 68°
2026-05-05 08:29 1.62477 106.46209 37001 ft 434 kts 68°
2026-05-05 08:30 1.65750 106.54649 37001 ft 434 kts 68°
2026-05-05 08:30 1.67923 106.60254 37002 ft 434 kts 68°
2026-05-05 08:31 1.70100 106.65867 37001 ft 433 kts 68°
2026-05-05 08:31 1.72279 106.71493 37000 ft 433 kts 68°
2026-05-05 08:32 1.74450 106.77106 37000 ft 433 kts 68°
2026-05-05 08:32 1.76632 106.82744 37000 ft 436 kts 69°
2026-05-05 08:33 1.78810 106.88377 36999 ft 432 kts 68°
2026-05-05 08:33 1.80968 106.93958 37000 ft 432 kts 68°
2026-05-05 08:34 1.83138 106.99567 37000 ft 431 kts 68°
2026-05-05 08:34 1.85300 107.05160 37000 ft 431 kts 68°
2026-05-05 08:35 1.87468 107.10767 37000 ft 432 kts 68°
2026-05-05 08:35 1.89626 107.16351 37000 ft 432 kts 68°
2026-05-05 08:36 1.91798 107.21969 37001 ft 434 kts 68°
2026-05-05 08:36 1.93996 107.27656 37009 ft 449 kts 68°
2026-05-05 08:37 1.96276 107.33556 37007 ft 462 kts 68°
2026-05-05 08:37 1.98605 107.39582 37001 ft 467 kts 68°
2026-05-05 08:38 2.00952 107.45644 37001 ft 465 kts 68°
2026-05-05 08:38 2.03298 107.51659 37001 ft 465 kts 68°
2026-05-05 08:39 2.05658 107.57713 37002 ft 467 kts 68°
2026-05-05 08:39 2.07995 107.63711 37002 ft 467 kts 68°
2026-05-05 08:40 2.10346 107.69743 37000 ft 466 kts 68°
2026-05-05 08:40 2.12707 107.75803 37000 ft 467 kts 69°
2026-05-05 08:41 2.15051 107.81818 37000 ft 466 kts 69°
2026-05-05 08:41 2.17394 107.87860 36991 ft 466 kts 69°
2026-05-05 08:42 2.19741 107.93935 36991 ft 466 kts 69°
2026-05-05 08:42 2.22081 107.99992 36991 ft 466 kts 69°
2026-05-05 08:43 2.24411 108.06027 36991 ft 466 kts 69°
2026-05-05 08:43 2.26751 108.12088 36991 ft 466 kts 69°
2026-05-05 08:44 2.29088 108.18140 36992 ft 466 kts 69°
2026-05-05 08:44 2.31412 108.24160 36992 ft 466 kts 69°
2026-05-05 08:45 2.33753 108.30225 36992 ft 466 kts 69°
2026-05-05 08:45 2.36082 108.36259 36992 ft 466 kts 69°
2026-05-05 08:46 2.38434 108.42353 36992 ft 467 kts 69°
2026-05-05 08:46 2.40762 108.48387 36992 ft 466 kts 69°
2026-05-05 08:47 2.43086 108.54412 36993 ft 466 kts 69°
2026-05-05 08:47 2.45430 108.60488 36993 ft 466 kts 69°
2026-05-05 08:48 2.47750 108.66506 36991 ft 466 kts 69°
2026-05-05 08:48 2.50084 108.72559 36991 ft 466 kts 69°
2026-05-05 08:49 2.52431 108.78645 36991 ft 466 kts 69°
2026-05-05 08:49 2.54754 108.84673 36991 ft 466 kts 69°
2026-05-05 08:50 2.57080 108.90707 36991 ft 466 kts 69°
2026-05-05 08:50 2.59439 108.96794 36991 ft 467 kts 69°
2026-05-05 08:51 2.61791 109.02844 36992 ft 467 kts 69°
2026-05-05 08:51 2.64146 109.08905 36992 ft 467 kts 69°
2026-05-05 08:52 2.66489 109.14936 36992 ft 467 kts 69°
2026-05-05 08:52 2.68845 109.21002 36992 ft 468 kts 69°
2026-05-05 08:53 2.71198 109.27060 36992 ft 468 kts 69°
2026-05-05 08:53 2.73552 109.33121 36992 ft 467 kts 69°
2026-05-05 08:54 2.75897 109.39161 36992 ft 467 kts 69°
2026-05-05 08:54 2.78249 109.45220 36992 ft 467 kts 68°
2026-05-05 08:55 2.80597 109.51269 36993 ft 467 kts 68°
2026-05-05 08:55 2.82946 109.57323 36992 ft 466 kts 68°
2026-05-05 08:56 2.85286 109.63353 36993 ft 466 kts 68°
2026-05-05 08:56 2.87631 109.69398 36991 ft 466 kts 68°
2026-05-05 08:57 2.89971 109.75432 36991 ft 467 kts 68°
2026-05-05 08:57 2.92323 109.81496 36991 ft 466 kts 68°
2026-05-05 08:58 2.94672 109.87556 36991 ft 466 kts 68°
2026-05-05 08:58 2.97002 109.93564 36991 ft 464 kts 68°
2026-05-05 08:59 2.99342 109.99602 36991 ft 464 kts 68°
2026-05-05 08:59 3.01674 110.05620 36991 ft 463 kts 68°
2026-05-05 09:00 3.03993 110.11605 36991 ft 463 kts 68°
2026-05-05 09:00 3.06328 110.17634 36991 ft 464 kts 68°
2026-05-05 09:01 3.08652 110.23634 36990 ft 465 kts 68°
2026-05-05 09:01 3.10992 110.29677 36992 ft 467 kts 68°
2026-05-05 09:02 3.13325 110.35704 36992 ft 466 kts 68°
2026-05-05 09:02 3.15662 110.41741 36993 ft 465 kts 68°
2026-05-05 09:03 3.17979 110.47728 36993 ft 465 kts 68°
2026-05-05 09:03 3.20313 110.53760 36993 ft 465 kts 68°
2026-05-05 09:04 3.22638 110.59772 36993 ft 465 kts 68°
2026-05-05 09:04 3.24946 110.65739 36992 ft 466 kts 68°
2026-05-05 09:05 3.27287 110.71792 36991 ft 466 kts 69°
2026-05-05 09:05 3.29633 110.77860 36991 ft 467 kts 69°
2026-05-05 09:06 3.31977 110.83924 36991 ft 466 kts 69°
2026-05-05 09:06 3.34317 110.89980 36991 ft 466 kts 69°
2026-05-05 09:07 3.36651 110.96021 36991 ft 466 kts 69°
2026-05-05 09:07 3.38982 111.02055 36991 ft 466 kts 69°
2026-05-05 09:08 3.41316 111.08098 36991 ft 466 kts 69°
2026-05-05 09:08 3.43658 111.14163 36992 ft 466 kts 69°
2026-05-05 09:09 3.45984 111.20190 36992 ft 466 kts 69°
2026-05-05 09:09 3.48323 111.26249 36992 ft 466 kts 69°
2026-05-05 09:10 3.50654 111.32288 36992 ft 466 kts 69°
2026-05-05 09:10 3.52989 111.38342 36992 ft 466 kts 69°
2026-05-05 09:11 3.55213 111.44108 36992 ft 466 kts 69°
2026-05-05 09:11 3.57547 111.50160 36992 ft 466 kts 69°
2026-05-05 09:12 3.59885 111.56225 36992 ft 466 kts 69°
2026-05-05 09:12 3.62186 111.62195 36993 ft 467 kts 69°
2026-05-05 09:13 3.64498 111.68192 36991 ft 467 kts 69°
2026-05-05 09:13 3.66831 111.74247 36991 ft 467 kts 69°
2026-05-05 09:14 3.69168 111.80314 36991 ft 468 kts 69°
2026-05-05 09:14 3.71471 111.86295 36991 ft 468 kts 69°
2026-05-05 09:15 3.73818 111.92391 36991 ft 468 kts 69°
2026-05-05 09:15 3.76149 111.98445 36991 ft 468 kts 69°
2026-05-05 09:16 3.78497 112.04546 36992 ft 468 kts 69°
2026-05-05 09:16 3.80834 112.10622 36992 ft 468 kts 69°
2026-05-05 09:17 3.83159 112.16665 36992 ft 468 kts 69°
2026-05-05 09:17 3.85512 112.22783 36992 ft 467 kts 69°
2026-05-05 09:18 3.87843 112.28848 36992 ft 468 kts 69°
2026-05-05 09:18 3.90174 112.34911 36992 ft 467 kts 69°
2026-05-05 09:19 3.92515 112.41002 36993 ft 468 kts 69°
2026-05-05 09:19 3.94846 112.47069 36993 ft 467 kts 69°
2026-05-05 09:20 3.97183 112.53155 36993 ft 468 kts 69°
2026-05-05 09:20 3.99521 112.59242 36993 ft 468 kts 69°
2026-05-05 09:21 4.01850 112.65309 36993 ft 467 kts 69°
2026-05-05 09:21 4.04178 112.71358 36992 ft 467 kts 69°
2026-05-05 09:22 4.06514 112.77421 36992 ft 467 kts 69°
2026-05-05 09:22 4.08861 112.83513 36992 ft 467 kts 69°
2026-05-05 09:23 4.11192 112.89563 36991 ft 466 kts 69°
2026-05-05 09:23 4.13511 112.95586 36991 ft 466 kts 69°
2026-05-05 09:24 4.15844 113.01645 36991 ft 466 kts 69°
2026-05-05 09:24 4.18184 113.07725 36991 ft 466 kts 69°
2026-05-05 09:25 4.20498 113.13738 36991 ft 466 kts 69°
2026-05-05 09:25 4.22832 113.19805 36991 ft 466 kts 69°
2026-05-05 09:26 4.25171 113.25887 36992 ft 466 kts 69°
2026-05-05 09:26 4.27488 113.31911 36992 ft 466 kts 69°
2026-05-05 09:27 4.29807 113.37944 36992 ft 466 kts 69°
2026-05-05 09:27 4.32148 113.44037 36992 ft 466 kts 69°
2026-05-05 09:28 4.34464 113.50065 36992 ft 466 kts 69°
2026-05-05 09:28 4.36794 113.56131 36992 ft 466 kts 69°
2026-05-05 09:29 4.39122 113.62195 36992 ft 466 kts 69°
2026-05-05 09:29 4.41407 113.68133 36991 ft 466 kts 69°
2026-05-05 09:30 4.43757 113.74194 36991 ft 466 kts 69°
2026-05-05 09:30 4.46088 113.80207 36991 ft 466 kts 69°
2026-05-05 09:31 4.48428 113.86247 36991 ft 466 kts 69°
2026-05-05 09:31 4.50773 113.92301 36991 ft 465 kts 69°
2026-05-05 09:32 4.53115 113.98349 36991 ft 465 kts 69°
2026-05-05 09:32 4.55462 114.04412 36991 ft 465 kts 69°
2026-05-05 09:33 4.57795 114.10439 36991 ft 466 kts 69°
2026-05-05 09:33 4.60095 114.16484 36992 ft 466 kts 69°
2026-05-05 09:34 4.62417 114.22585 36992 ft 466 kts 69°
2026-05-05 09:34 4.64720 114.28639 36992 ft 466 kts 69°
2026-05-05 09:35 4.67019 114.34683 36992 ft 466 kts 69°
2026-05-05 09:35 4.70495 114.43829 36992 ft 466 kts 69°
2026-05-05 09:36 4.72798 114.49886 36992 ft 467 kts 69°
2026-05-05 09:36 4.75106 114.55963 36993 ft 467 kts 69°
2026-05-05 09:37 4.77411 114.62029 36993 ft 467 kts 69°
2026-05-05 09:37 4.79741 114.68167 36991 ft 467 kts 69°
2026-05-05 09:38 4.82041 114.74225 36991 ft 467 kts 69°
2026-05-05 09:38 4.84339 114.80280 36991 ft 467 kts 69°
2026-05-05 09:39 4.86669 114.86422 36991 ft 467 kts 68°
2026-05-05 09:39 4.88786 114.92518 36993 ft 464 kts 71°
2026-05-05 09:40 4.90793 114.98655 36991 ft 464 kts 71°
2026-05-05 09:40 4.92811 115.04810 36991 ft 464 kts 71°
2026-05-05 09:41 4.94830 115.10966 36991 ft 464 kts 71°
2026-05-05 09:41 4.96845 115.17113 36991 ft 464 kts 71°
2026-05-05 09:42 4.98850 115.23230 36991 ft 464 kts 71°
2026-05-05 09:42 5.00874 115.29407 36991 ft 465 kts 71°
2026-05-05 09:43 5.02880 115.35535 36992 ft 465 kts 71°
2026-05-05 09:43 5.04902 115.41708 36992 ft 465 kts 71°
2026-05-05 09:44 5.06914 115.47856 36992 ft 465 kts 71°
2026-05-05 09:44 5.08931 115.54022 36992 ft 465 kts 71°
2026-05-05 09:45 5.10959 115.60223 36993 ft 465 kts 71°
2026-05-05 09:45 5.12975 115.66390 36991 ft 465 kts 71°
2026-05-05 09:46 5.14987 115.72563 36991 ft 465 kts 71°
2026-05-05 09:46 5.16980 115.78704 36991 ft 466 kts 71°
2026-05-05 09:47 5.18987 115.84892 36991 ft 466 kts 71°
2026-05-05 09:47 5.20973 115.91016 36991 ft 465 kts 71°
2026-05-05 09:48 5.22973 115.97186 36991 ft 465 kts 71°
2026-05-05 09:48 5.24969 116.03344 36991 ft 465 kts 71°
2026-05-05 09:49 5.26960 116.09491 36991 ft 465 kts 71°
2026-05-05 09:49 5.28957 116.15659 36991 ft 465 kts 71°
2026-05-05 09:50 5.30954 116.21826 36991 ft 465 kts 71°
2026-05-05 09:50 5.32940 116.27966 36991 ft 465 kts 71°
2026-05-05 09:51 5.34950 116.34178 36991 ft 466 kts 71°
2026-05-05 09:51 5.36941 116.40337 36991 ft 466 kts 72°
2026-05-05 09:52 5.38932 116.46497 36991 ft 466 kts 72°
2026-05-05 09:52 5.40936 116.52698 36991 ft 466 kts 72°
2026-05-05 09:53 5.42931 116.58875 36991 ft 466 kts 72°
2026-05-05 09:53 5.44928 116.65060 36992 ft 466 kts 72°
2026-05-05 09:54 5.46926 116.71247 36990 ft 467 kts 72°
2026-05-05 09:54 5.48928 116.77446 36990 ft 467 kts 72°
2026-05-05 09:55 5.50931 116.83650 36990 ft 467 kts 72°
2026-05-05 09:55 5.52926 116.89835 36991 ft 467 kts 72°
2026-05-05 09:56 5.54928 116.96039 36991 ft 467 kts 72°
2026-05-05 09:56 5.56927 117.02241 36991 ft 467 kts 72°
2026-05-05 09:57 5.58917 117.08415 36991 ft 467 kts 72°
2026-05-05 09:57 5.60912 117.14622 36991 ft 467 kts 72°
2026-05-05 09:58 5.62907 117.20848 36991 ft 467 kts 72°
2026-05-05 09:58 5.64893 117.27048 36991 ft 467 kts 72°
2026-05-05 09:59 5.66889 117.33283 36992 ft 467 kts 72°
2026-05-05 09:59 5.68869 117.39468 36992 ft 467 kts 72°
2026-05-05 10:00 5.70866 117.45710 36992 ft 467 kts 72°
2026-05-05 10:00 5.72822 117.51881 36993 ft 467 kts 72°
2026-05-05 10:01 5.74794 117.58113 36993 ft 467 kts 72°
2026-05-05 10:01 5.76760 117.64333 36993 ft 467 kts 72°
2026-05-05 10:02 5.78724 117.70545 36991 ft 467 kts 72°
2026-05-05 10:02 5.80682 117.76743 36991 ft 466 kts 73°
2026-05-05 10:03 5.82637 117.82935 36992 ft 466 kts 73°
2026-05-05 10:03 5.84603 117.89163 36992 ft 466 kts 72°
2026-05-05 10:04 5.86556 117.95350 36992 ft 466 kts 72°
2026-05-05 10:04 5.88515 118.01562 36992 ft 466 kts 72°
2026-05-05 10:05 5.90474 118.07785 36991 ft 466 kts 74°
2026-05-05 10:05 5.92112 118.14058 36992 ft 466 kts 76°
2026-05-05 10:06 5.93755 118.20328 36992 ft 466 kts 75°
2026-05-05 10:06 5.95413 118.26646 36992 ft 467 kts 75°
2026-05-05 10:07 5.97061 118.32927 36992 ft 467 kts 75°
2026-05-05 10:07 5.98710 118.39216 36992 ft 467 kts 75°
2026-05-05 10:08 6.00370 118.45550 36993 ft 467 kts 75°
2026-05-05 10:08 6.02017 118.51836 36993 ft 467 kts 75°
2026-05-05 10:09 6.03662 118.58152 36993 ft 467 kts 75°
2026-05-05 10:09 6.05301 118.64473 36993 ft 467 kts 75°
2026-05-05 10:10 6.06925 118.70740 36991 ft 466 kts 75°
2026-05-05 10:10 6.08562 118.77055 36991 ft 466 kts 75°
2026-05-05 10:11 6.10190 118.83341 36991 ft 466 kts 75°
2026-05-05 10:11 6.11825 118.89659 36992 ft 466 kts 75°
2026-05-05 10:12 6.13457 118.95966 36991 ft 467 kts 75°
2026-05-05 10:12 6.15090 119.02281 36992 ft 467 kts 75°
2026-05-05 10:13 6.16726 119.08615 36992 ft 467 kts 75°
2026-05-05 10:13 6.18348 119.14894 36992 ft 467 kts 75°
2026-05-05 10:14 6.19986 119.21239 36992 ft 467 kts 75°
2026-05-05 10:14 6.21604 119.27509 36992 ft 466 kts 75°
2026-05-05 10:15 6.23225 119.33794 36992 ft 466 kts 75°
2026-05-05 10:15 6.24870 119.40174 36992 ft 466 kts 75°
2026-05-05 10:16 6.26492 119.46471 36993 ft 466 kts 75°
2026-05-05 10:16 6.28118 119.52785 36993 ft 466 kts 75°
2026-05-05 10:17 6.29736 119.59074 36993 ft 465 kts 75°
2026-05-05 10:17 6.31353 119.65359 36993 ft 466 kts 75°
2026-05-05 10:18 6.32979 119.71686 36991 ft 466 kts 75°
2026-05-05 10:18 6.34598 119.77985 36991 ft 466 kts 75°
2026-05-05 10:19 6.36214 119.84277 36991 ft 466 kts 75°
2026-05-05 10:19 6.37828 119.90568 36991 ft 466 kts 75°
2026-05-05 10:20 6.39449 119.96885 36991 ft 466 kts 75°
2026-05-05 10:20 6.41066 120.03191 36992 ft 466 kts 75°
2026-05-05 10:21 6.42681 120.09491 36991 ft 466 kts 75°
2026-05-05 10:21 6.44300 120.15816 36992 ft 466 kts 75°
2026-05-05 10:22 6.45913 120.22114 36992 ft 466 kts 75°
2026-05-05 10:22 6.47536 120.28460 36992 ft 466 kts 75°
2026-05-05 10:23 6.49155 120.34790 36992 ft 466 kts 75°
2026-05-05 10:23 6.50759 120.41068 36992 ft 466 kts 75°
2026-05-05 10:24 6.52372 120.47382 36992 ft 466 kts 75°
2026-05-05 10:24 6.53987 120.53709 36992 ft 467 kts 75°
2026-05-05 10:25 6.55600 120.60030 36992 ft 467 kts 75°
2026-05-05 10:25 6.57204 120.66321 36991 ft 467 kts 75°
2026-05-05 10:26 6.58823 120.72674 36990 ft 468 kts 75°
2026-05-05 10:26 6.60435 120.79001 36991 ft 466 kts 75°
2026-05-05 10:27 6.62042 120.85316 36991 ft 464 kts 75°
2026-05-05 10:27 6.63644 120.91611 36991 ft 464 kts 75°
2026-05-05 10:28 6.65231 120.97850 36991 ft 464 kts 75°
2026-05-05 10:28 6.66832 121.04150 36991 ft 463 kts 75°
2026-05-05 10:29 6.68423 121.10414 36991 ft 463 kts 75°
2026-05-05 10:29 6.70020 121.16706 36991 ft 464 kts 75°
2026-05-05 10:30 6.71621 121.23016 36991 ft 465 kts 75°
2026-05-05 10:30 6.73209 121.29277 36991 ft 465 kts 75°
2026-05-05 10:31 6.74811 121.35599 36992 ft 465 kts 75°
2026-05-05 10:31 6.76400 121.41872 36992 ft 466 kts 75°
2026-05-05 10:32 6.78001 121.48200 36992 ft 466 kts 75°
2026-05-05 10:32 6.79597 121.54508 36992 ft 466 kts 75°
2026-05-05 10:33 6.81206 121.60870 36993 ft 466 kts 75°
2026-05-05 10:33 6.82778 121.67091 36991 ft 467 kts 76°
2026-05-05 10:34 6.84377 121.73426 36991 ft 467 kts 76°
2026-05-05 10:34 6.85981 121.79781 36991 ft 467 kts 76°
2026-05-05 10:35 6.87570 121.86079 36991 ft 467 kts 76°
2026-05-05 10:35 6.89169 121.92426 36991 ft 467 kts 76°
2026-05-05 10:36 6.90819 121.98746 36987 ft 465 kts 70°
2026-05-05 10:36 6.93834 122.04466 36998 ft 463 kts 51°
2026-05-05 10:37 6.98231 122.09154 36998 ft 461 kts 37°
2026-05-05 10:37 7.03842 122.12271 37002 ft 460 kts 22°
2026-05-05 10:38 7.09564 122.15222 36993 ft 460 kts 28°
2026-05-05 10:38 7.15208 122.18391 36992 ft 460 kts 28°
2026-05-05 10:39 7.16107 122.18900 36992 ft 460 kts 28°